contact:dominique.lefevre@mio.osupytheas.fr, maurice.libes@osupytheas.fr, didier.mallarino@osupytheas.fr
Project:EMSO http://www.emso-fr.org/EMSO-France
Depth: 2436.0 m
Title:EMSO Ligure Ouest : Data MII capteur AQUADOPP
Date,Latitude,Longitude,X_East,Y_North,Z_Up,Amplitude_X,Amplitude_Y,Amplitude_Z,Batterie,SoundSpeed,Heading,Pitch,Roll,Pressure,TIS,Speed,Direction
, degrees North, degrees East, m.s-1, m.s-1,m.s-1, 1, 1, 1, Volt, m.s-1, degree, degree, degree, dbar, degree_C, m.s-1, degree
2023-05-24T00:04:02,42.805,6.029,-0.016,-0.014,-0.027,105.0,104.0,102.0,13.3,1505.2,319.8,-0.8,1.8,2471.529,13.28,0.021,228.8
2023-05-24T00:07:02,42.805,6.029,-0.022,-0.009,-0.019,105.0,105.0,102.0,13.4,1505.2,337.1,-0.7,1.8,2471.49,13.29,0.023,247.8
2023-05-24T00:10:03,42.805,6.029,-0.02,-0.025,-0.058,103.0,103.0,102.0,13.4,1505.2,324.6,-0.8,1.8,2471.525,13.29,0.032,218.7
2023-05-24T00:13:03,42.805,6.029,-0.008,-0.019,-0.051,105.0,104.0,102.0,13.4,1505.2,339.3,-0.8,1.9,2471.492,13.29,0.02,202.8
2023-05-24T00:16:03,42.805,6.029,-0.01,-0.039,-0.02,105.0,103.0,103.0,13.4,1505.2,319.4,-0.7,1.8,2471.469,13.29,0.04,194.4
2023-05-24T00:19:03,42.805,6.029,-0.01,-0.012,-0.003,102.0,103.0,103.0,13.4,1505.2,334.4,-0.8,1.8,2471.455,13.29,0.015,219.8
2023-05-24T00:22:02,42.805,6.029,-0.011,-0.007,-0.003,105.0,104.0,102.0,13.4,1505.2,336.6,-0.8,1.8,2471.508,13.29,0.013,237.5
2023-05-24T00:25:03,42.805,6.029,-0.006,-0.014,-0.027,105.0,104.0,102.0,13.4,1505.2,332.4,-0.7,1.8,2471.463,13.29,0.015,203.2
2023-05-24T00:28:03,42.805,6.029,-0.023,-0.024,-0.024,104.0,104.0,102.0,13.3,1505.2,335.0,-0.8,1.8,2471.479,13.29,0.033,223.8
2023-05-24T00:31:03,42.805,6.029,0.003,-0.007,0.005,103.0,104.0,103.0,13.4,1505.2,341.5,-0.8,1.8,2471.456,13.29,0.007,156.8
2023-05-24T00:34:03,42.805,6.029,-0.038,0.0,-0.053,105.0,104.0,102.0,13.3,1505.2,338.8,-0.7,1.8,2471.464,13.29,0.038,270.0
2023-05-24T00:37:02,42.805,6.029,0.014,-0.005,0.017,105.0,104.0,101.0,13.4,1505.2,333.4,-0.8,1.8,2471.481,13.29,0.014,109.6
2023-05-24T00:40:03,42.805,6.029,-0.017,-0.012,-0.032,105.0,104.0,103.0,13.4,1505.2,320.3,-0.8,1.8,2471.469,13.29,0.02,234.8
2023-05-24T00:43:03,42.805,6.029,-0.028,-0.01,-0.04,103.0,104.0,103.0,13.4,1505.2,321.6,-0.7,1.8,2471.437,13.29,0.029,250.4
2023-05-24T00:46:03,42.805,6.029,-0.01,0.0,-0.019,105.0,104.0,102.0,13.4,1505.2,337.2,-0.8,1.8,2471.429,13.29,0.01,270.0
2023-05-24T00:49:03,42.805,6.029,-0.022,-0.028,-0.033,104.0,103.0,102.0,13.3,1505.2,321.0,-0.8,1.8,2471.449,13.29,0.035,218.2
2023-05-24T00:52:02,42.805,6.029,-0.023,-0.011,-0.022,104.0,103.0,103.0,13.4,1505.2,337.3,-0.8,1.8,2471.442,13.29,0.025,244.4
2023-05-24T00:55:03,42.805,6.029,-0.031,-0.022,-0.018,105.0,104.0,101.0,13.4,1505.2,348.2,-0.7,1.8,2471.476,13.29,0.038,234.6
2023-05-24T00:58:03,42.805,6.029,-0.003,-0.016,-0.014,105.0,103.0,102.0,13.4,1505.2,325.5,-0.7,1.8,2471.426,13.29,0.016,190.6
2023-05-24T01:04:02,42.805,6.029,-0.014,-0.016,0.002,105.0,105.0,103.0,13.4,1505.2,334.7,-0.8,1.8,2471.505,13.28,0.021,221.2
2023-05-24T01:07:02,42.805,6.029,-0.045,-0.001,-0.002,104.0,103.0,102.0,13.4,1505.2,327.1,-0.7,1.8,2471.483,13.28,0.045,268.7
2023-05-24T01:10:03,42.805,6.029,-0.024,-0.003,-0.008,103.0,102.0,102.0,13.4,1505.2,333.9,-0.8,1.8,2471.488,13.29,0.024,262.9
2023-05-24T01:13:03,42.805,6.029,0.0,-0.003,-0.009,104.0,104.0,101.0,13.3,1505.2,343.4,-0.8,1.8,2471.476,13.29,0.003,180.0
2023-05-24T01:16:03,42.805,6.029,-0.014,-0.03,-0.014,104.0,103.0,102.0,13.4,1505.2,328.6,-0.8,1.8,2471.466,13.29,0.033,205.0
2023-05-24T01:19:03,42.805,6.029,-0.017,-0.024,-0.023,104.0,103.0,101.0,13.4,1505.2,340.0,-0.7,1.8,2471.458,13.29,0.029,215.3
2023-05-24T01:22:02,42.805,6.029,-0.043,-0.006,-0.016,105.0,102.0,103.0,13.4,1505.2,338.4,-0.8,1.8,2471.468,13.29,0.043,262.1
2023-05-24T01:25:03,42.805,6.029,-0.012,-0.021,-0.06,103.0,104.0,103.0,13.4,1505.2,328.3,-0.8,1.8,2471.465,13.29,0.024,209.7
2023-05-24T01:28:03,42.805,6.029,-0.032,0.001,-0.039,105.0,104.0,102.0,13.3,1505.2,341.2,-0.7,1.8,2471.442,13.29,0.032,271.8
2023-05-24T01:31:03,42.805,6.029,-0.003,-0.012,-0.022,104.0,102.0,101.0,13.4,1505.2,320.3,-0.8,1.8,2471.444,13.29,0.012,194.0
2023-05-24T01:34:03,42.805,6.029,-0.007,-0.032,-0.016,105.0,105.0,101.0,13.4,1505.2,323.1,-0.8,1.8,2471.446,13.29,0.032,192.3
2023-05-24T01:37:03,42.805,6.029,-0.009,-0.003,-0.016,105.0,104.0,102.0,13.3,1505.2,340.0,-0.8,1.8,2471.425,13.29,0.009,251.6
2023-05-24T01:40:03,42.805,6.029,-0.024,-0.011,-0.016,105.0,104.0,101.0,13.4,1505.2,319.4,-0.7,1.8,2471.401,13.29,0.026,245.4
2023-05-24T01:43:03,42.805,6.029,-0.016,-0.008,-0.016,104.0,104.0,102.0,13.3,1505.2,330.0,-0.8,1.8,2471.415,13.29,0.017,243.4
2023-05-24T01:46:03,42.805,6.029,-0.008,-0.023,-0.044,103.0,104.0,102.0,13.4,1505.2,326.0,-0.8,1.8,2471.427,13.29,0.024,199.2
2023-05-24T01:49:03,42.805,6.029,0.011,-0.021,-0.024,104.0,104.0,102.0,13.4,1505.2,328.4,-0.8,1.8,2471.4,13.29,0.023,152.4
2023-05-24T01:52:03,42.805,6.029,-0.035,-0.002,-0.041,103.0,104.0,102.0,13.3,1505.2,344.0,-0.7,1.8,2471.421,13.29,0.035,266.7
2023-05-24T01:55:03,42.805,6.029,-0.015,-0.023,-0.048,104.0,103.0,101.0,13.4,1505.2,320.7,-0.8,1.8,2471.48,13.29,0.027,213.1
2023-05-24T01:58:03,42.805,6.029,-0.032,-0.003,-0.021,105.0,104.0,102.0,13.3,1505.2,332.9,-0.8,1.8,2471.429,13.29,0.032,264.6
2023-05-24T02:04:02,42.805,6.029,-0.021,-0.017,-0.013,104.0,103.0,102.0,13.3,1505.2,319.9,-0.8,1.8,2471.467,13.28,0.027,231.0
2023-05-24T02:07:02,42.805,6.029,0.0,-0.024,-0.01,103.0,103.0,102.0,13.4,1505.2,319.0,-0.8,1.8,2471.466,13.28,0.024,180.0
2023-05-24T02:10:03,42.805,6.029,-0.026,-0.025,-0.012,104.0,103.0,102.0,13.3,1505.2,336.5,-0.7,1.8,2471.468,13.29,0.036,226.1
2023-05-24T02:13:03,42.805,6.029,0.003,-0.016,-0.017,104.0,104.0,101.0,13.3,1505.2,333.4,-0.8,1.8,2471.444,13.29,0.016,169.4
2023-05-24T02:16:03,42.805,6.029,-0.031,-0.001,-0.018,104.0,104.0,101.0,13.4,1505.2,343.3,-0.8,1.8,2471.454,13.29,0.031,268.2
2023-05-24T02:19:03,42.805,6.029,-0.012,0.003,-0.033,103.0,103.0,101.0,13.3,1505.2,337.9,-0.7,1.8,2471.394,13.29,0.012,284.0
2023-05-24T02:22:03,42.805,6.029,-0.027,-0.022,-0.029,104.0,104.0,101.0,13.4,1505.2,321.7,-0.8,1.8,2471.445,13.29,0.034,230.8
2023-05-24T02:25:03,42.805,6.029,-0.023,-0.018,-0.025,105.0,103.0,102.0,13.3,1505.2,322.4,-0.8,1.8,2471.439,13.29,0.029,232.0
2023-05-24T02:28:03,42.805,6.029,-0.021,-0.013,-0.039,103.0,104.0,102.0,13.4,1505.2,332.1,-0.8,1.8,2471.408,13.29,0.024,238.2
2023-05-24T02:31:03,42.805,6.029,-0.04,0.027,0.017,104.0,104.0,102.0,13.3,1505.2,344.2,-0.8,1.9,2471.434,13.29,0.048,304.0
2023-05-24T02:34:03,42.805,6.029,-0.022,0.0,-0.004,104.0,103.0,102.0,13.4,1505.2,344.6,-0.8,1.8,2471.404,13.29,0.022,270.0
2023-05-24T02:37:03,42.805,6.029,-0.018,-0.019,-0.002,103.0,105.0,102.0,13.4,1505.2,326.5,-0.8,1.8,2471.423,13.29,0.026,223.5
2023-05-24T02:40:03,42.805,6.029,-0.031,-0.024,-0.026,105.0,103.0,101.0,13.4,1505.2,321.7,-0.7,1.8,2471.408,13.29,0.039,232.3
2023-05-24T02:43:03,42.805,6.029,-0.02,-0.017,-0.037,106.0,104.0,100.0,13.3,1505.2,334.3,-0.7,1.8,2471.448,13.29,0.026,229.6
2023-05-24T02:46:03,42.805,6.029,-0.01,-0.015,0.0,106.0,104.0,101.0,13.4,1505.2,324.6,-0.8,1.8,2471.39,13.29,0.018,213.7
2023-05-24T02:49:03,42.805,6.029,-0.067,0.018,-0.033,105.0,104.0,102.0,13.4,1505.2,344.8,-0.8,1.8,2471.41,13.29,0.069,285.0
2023-05-24T02:52:03,42.805,6.029,-0.043,-0.033,-0.03,103.0,104.0,102.0,13.3,1505.2,318.7,-0.8,1.8,2471.424,13.29,0.054,232.5
2023-05-24T02:55:03,42.805,6.029,-0.012,-0.02,-0.015,103.0,102.0,101.0,13.4,1505.2,330.9,-0.8,1.8,2471.439,13.29,0.023,211.0
2023-05-24T02:58:03,42.805,6.029,-0.012,-0.013,-0.026,102.0,104.0,103.0,13.4,1505.2,330.3,-0.8,1.8,2471.38,13.29,0.017,222.7
2023-05-24T03:04:02,42.805,6.029,-0.023,-0.011,-0.035,104.0,103.0,102.0,13.4,1505.2,335.5,-0.8,1.8,2471.44,13.28,0.025,244.4
2023-05-24T03:07:02,42.805,6.029,-0.034,0.004,-0.034,104.0,104.0,102.0,13.3,1505.2,334.9,-0.7,1.8,2471.425,13.29,0.034,276.7
2023-05-24T03:10:03,42.805,6.029,-0.026,0.0,-0.037,104.0,104.0,102.0,13.4,1505.2,343.6,-0.8,1.8,2471.43,13.29,0.026,270.0
2023-05-24T03:13:03,42.805,6.029,-0.016,0.014,-0.009,104.0,103.0,102.0,13.3,1505.2,336.5,-0.8,1.8,2471.405,13.29,0.021,311.2
2023-05-24T03:16:03,42.805,6.029,-0.023,0.007,-0.029,103.0,104.0,102.0,13.4,1505.2,338.2,-0.8,1.8,2471.405,13.29,0.024,286.9
2023-05-24T03:19:03,42.805,6.029,-0.047,-0.003,-0.022,104.0,103.0,102.0,13.3,1505.2,334.4,-0.8,1.8,2471.413,13.29,0.047,266.4
2023-05-24T03:22:03,42.805,6.029,-0.033,-0.019,-0.028,104.0,103.0,102.0,13.4,1505.2,327.8,-0.7,1.8,2471.405,13.29,0.038,240.1
2023-05-24T03:25:03,42.805,6.029,-0.026,-0.014,-0.028,104.0,103.0,101.0,13.4,1505.2,329.8,-0.8,1.8,2471.368,13.29,0.029,241.7
2023-05-24T03:28:03,42.805,6.029,-0.032,-0.006,-0.031,104.0,103.0,101.0,13.3,1505.2,344.2,-0.7,1.8,2471.387,13.29,0.032,259.4
2023-05-24T03:31:03,42.805,6.029,-0.039,0.009,-0.053,104.0,103.0,103.0,13.4,1505.2,339.6,-0.8,1.8,2471.4,13.29,0.04,283.0
2023-05-24T03:34:03,42.805,6.029,-0.029,-0.015,0.0,103.0,102.0,103.0,13.3,1505.2,321.7,-0.7,1.8,2471.39,13.29,0.032,242.6
2023-05-24T03:37:03,42.805,6.029,-0.02,0.013,-0.022,104.0,103.0,101.0,13.4,1505.2,328.8,-0.7,1.9,2471.383,13.29,0.023,303.0
2023-05-24T03:40:03,42.805,6.029,-0.029,0.005,-0.012,103.0,101.0,101.0,13.4,1505.2,336.5,-0.7,1.8,2471.387,13.29,0.029,279.8
2023-05-24T03:43:03,42.805,6.029,-0.034,0.0,-0.003,103.0,102.0,101.0,13.4,1505.2,330.8,-0.7,1.8,2471.383,13.29,0.034,270.0
2023-05-24T03:46:03,42.805,6.029,-0.023,0.0,-0.013,102.0,103.0,101.0,13.4,1505.2,327.3,-0.7,1.8,2471.357,13.29,0.023,270.0
2023-05-24T03:49:03,42.805,6.029,-0.018,0.007,-0.001,103.0,102.0,101.0,13.3,1505.2,343.5,-0.8,1.8,2471.35,13.29,0.019,291.2
2023-05-24T03:52:03,42.805,6.029,-0.036,0.005,-0.031,104.0,101.0,103.0,13.4,1505.2,338.3,-0.8,1.8,2471.372,13.29,0.036,277.9
2023-05-24T03:55:03,42.805,6.029,-0.009,0.003,-0.049,103.0,102.0,102.0,13.3,1505.2,339.7,-0.8,1.8,2471.4,13.29,0.009,288.4
2023-05-24T03:58:03,42.805,6.029,-0.034,0.002,-0.029,102.0,102.0,101.0,13.4,1505.2,323.8,-0.8,1.8,2471.39,13.29,0.034,273.4
2023-05-24T04:04:03,42.805,6.029,-0.031,0.019,-0.027,102.0,103.0,101.0,13.4,1505.2,332.9,-0.8,1.8,2471.42,13.28,0.036,301.5
2023-05-24T04:07:02,42.805,6.029,-0.017,0.001,-0.045,102.0,102.0,99.0,13.4,1505.2,337.5,-0.7,1.8,2471.38,13.29,0.017,273.4
2023-05-24T04:10:03,42.805,6.029,-0.017,0.02,-0.009,104.0,100.0,100.0,13.4,1505.2,341.2,-0.8,1.8,2471.387,13.29,0.026,319.6
2023-05-24T04:13:03,42.805,6.029,-0.024,-0.004,0.006,102.0,103.0,100.0,13.3,1505.2,329.3,-0.8,1.8,2471.384,13.29,0.024,260.5
2023-05-24T04:16:03,42.805,6.029,-0.027,-0.006,-0.034,102.0,103.0,101.0,13.4,1505.2,326.0,-0.8,1.9,2471.363,13.29,0.027,257.5
2023-05-24T04:19:03,42.805,6.029,-0.025,-0.006,-0.014,101.0,102.0,100.0,13.3,1505.2,326.3,-0.7,1.8,2471.376,13.29,0.025,256.5
2023-05-24T04:22:03,42.805,6.029,-0.023,0.002,-0.034,102.0,102.0,101.0,13.4,1505.2,338.9,-0.8,1.8,2471.414,13.29,0.023,275.0
2023-05-24T04:25:03,42.805,6.029,-0.015,-0.003,-0.007,102.0,103.0,101.0,13.3,1505.2,333.9,-0.8,1.8,2471.379,13.29,0.015,258.7
2023-05-24T04:28:03,42.805,6.029,-0.024,-0.005,-0.015,103.0,102.0,101.0,13.4,1505.2,327.8,-0.8,1.8,2471.367,13.29,0.024,258.2
2023-05-24T04:31:03,42.805,6.029,-0.011,-0.005,-0.035,102.0,102.0,102.0,13.4,1505.2,325.2,-0.8,1.8,2471.384,13.29,0.012,245.6
2023-05-24T04:34:03,42.805,6.029,-0.02,-0.008,-0.02,103.0,103.0,101.0,13.4,1505.2,327.1,-0.8,1.8,2471.344,13.29,0.021,248.2
2023-05-24T04:37:03,42.805,6.029,-0.032,0.029,-0.04,103.0,102.0,101.0,13.4,1505.2,339.7,-0.8,1.8,2471.367,13.29,0.043,312.2
2023-05-24T04:40:03,42.805,6.029,-0.041,-0.01,-0.023,102.0,101.0,101.0,13.4,1505.2,335.4,-0.8,1.8,2471.343,13.29,0.042,256.3
2023-05-24T04:43:03,42.805,6.029,-0.03,0.005,-0.03,104.0,103.0,102.0,13.4,1505.2,332.9,-0.8,1.8,2471.352,13.29,0.03,279.5
2023-05-24T04:46:03,42.805,6.029,-0.029,-0.003,-0.039,103.0,102.0,101.0,13.4,1505.2,325.7,-0.8,1.8,2471.36,13.29,0.029,264.1
2023-05-24T04:49:03,42.805,6.029,-0.041,0.011,-0.04,103.0,102.0,102.0,13.4,1505.2,343.7,-0.8,1.8,2471.364,13.29,0.042,285.0
2023-05-24T04:52:03,42.805,6.029,-0.013,-0.004,-0.014,103.0,101.0,101.0,13.3,1505.2,318.2,-0.7,1.8,2471.329,13.29,0.013,252.9
2023-05-24T04:55:03,42.805,6.029,-0.036,0.001,-0.058,103.0,103.0,101.0,13.3,1505.2,337.5,-0.8,1.8,2471.344,13.29,0.036,271.6
2023-05-24T04:58:03,42.805,6.029,-0.03,0.001,-0.015,104.0,103.0,101.0,13.4,1505.2,328.2,-0.7,1.8,2471.35,13.29,0.03,271.9
2023-05-24T05:04:03,42.805,6.029,-0.03,0.015,0.0,104.0,102.0,102.0,13.4,1505.2,325.8,-0.8,1.8,2471.392,13.28,0.033,296.6
2023-05-24T05:07:03,42.805,6.029,-0.006,0.037,-0.029,103.0,104.0,102.0,13.3,1505.2,338.2,-0.7,1.8,2471.432,13.29,0.037,350.8
2023-05-24T05:10:03,42.805,6.029,-0.035,0.027,-0.01,103.0,104.0,102.0,13.4,1505.2,336.8,-0.7,1.8,2471.408,13.29,0.044,307.7
2023-05-24T05:13:03,42.805,6.029,-0.023,0.042,0.002,103.0,103.0,101.0,13.3,1505.2,349.3,-0.8,1.8,2471.382,13.29,0.047,331.3
2023-05-24T05:16:03,42.805,6.029,-0.029,0.023,-0.03,103.0,102.0,102.0,13.4,1505.2,345.4,-0.7,1.8,2471.358,13.29,0.037,308.4
2023-05-24T05:19:03,42.805,6.029,-0.012,0.011,-0.041,103.0,103.0,101.0,13.3,1505.2,321.3,-0.8,1.8,2471.39,13.29,0.016,312.5
2023-05-24T05:22:02,42.805,6.029,-0.028,-0.028,-0.041,103.0,102.0,102.0,13.4,1505.2,324.5,-0.8,1.8,2471.375,13.29,0.039,225.0
2023-05-24T05:25:03,42.805,6.029,-0.013,0.02,-0.002,101.0,102.0,101.0,13.4,1505.2,335.7,-0.8,1.8,2471.357,13.29,0.023,327.0
2023-05-24T05:28:03,42.805,6.029,-0.035,0.031,-0.034,103.0,102.0,100.0,13.3,1505.2,325.4,-0.7,1.8,2471.359,13.29,0.046,311.5
2023-05-24T05:31:03,42.805,6.029,-0.01,0.0,-0.053,101.0,102.0,102.0,13.3,1505.2,344.2,-0.8,1.8,2471.39,13.29,0.01,270.0
2023-05-24T05:34:03,42.805,6.029,-0.045,0.007,-0.008,102.0,101.0,100.0,13.4,1505.2,319.4,-0.8,1.9,2471.36,13.29,0.045,278.8
2023-05-24T05:37:02,42.805,6.029,-0.04,-0.002,-0.026,102.0,102.0,101.0,13.4,1505.2,336.0,-0.7,1.8,2471.366,13.29,0.04,267.1
2023-05-24T05:40:03,42.805,6.029,-0.01,0.007,-0.022,102.0,102.0,101.0,13.3,1505.2,331.3,-0.8,1.8,2471.349,13.29,0.012,305.0
2023-05-24T05:43:03,42.805,6.029,-0.02,0.006,-0.023,102.0,103.0,101.0,13.3,1505.2,347.0,-0.8,1.8,2471.351,13.29,0.02,286.7
2023-05-24T05:46:03,42.805,6.029,-0.03,0.016,-0.047,102.0,101.0,100.0,13.3,1505.2,343.9,-0.8,1.8,2471.355,13.29,0.034,298.1
2023-05-24T05:49:03,42.805,6.029,-0.028,0.005,-0.039,102.0,102.0,101.0,13.3,1505.2,322.4,-0.8,1.8,2471.396,13.29,0.028,280.1
2023-05-24T05:52:03,42.805,6.029,0.003,0.01,-0.01,102.0,104.0,101.0,13.3,1505.2,336.3,-0.8,1.8,2471.334,13.29,0.01,16.7
2023-05-24T05:55:03,42.805,6.029,-0.024,0.011,-0.058,101.0,103.0,100.0,13.4,1505.2,329.8,-0.8,1.8,2471.406,13.29,0.026,294.6
2023-05-24T05:58:03,42.805,6.029,-0.009,0.001,-0.029,101.0,102.0,101.0,13.3,1505.2,323.8,-0.7,1.8,2471.365,13.29,0.009,276.3
2023-05-24T06:04:03,42.805,6.029,-0.013,0.029,-0.006,102.0,103.0,101.0,13.4,1505.2,334.9,-0.8,1.8,2471.412,13.29,0.031,335.9
2023-05-24T06:07:03,42.805,6.029,-0.027,-0.011,-0.036,102.0,102.0,101.0,13.4,1505.2,324.3,-0.8,1.8,2471.406,13.29,0.029,247.8
2023-05-24T06:10:03,42.805,6.029,-0.01,-0.016,-0.049,103.0,101.0,102.0,13.4,1505.2,321.0,-0.8,1.8,2471.399,13.29,0.018,212.0
2023-05-24T06:13:03,42.805,6.029,-0.024,0.006,0.01,102.0,101.0,101.0,13.4,1505.2,341.2,-0.7,1.8,2471.394,13.29,0.024,284.0
2023-05-24T06:16:03,42.805,6.029,-0.022,0.013,-0.016,102.0,102.0,102.0,13.3,1505.2,325.7,-0.8,1.9,2471.402,13.29,0.025,300.6
2023-05-24T06:19:03,42.805,6.029,-0.038,0.013,-0.04,103.0,103.0,100.0,13.4,1505.2,344.3,-0.8,1.8,2471.369,13.29,0.04,288.9
2023-05-24T06:22:03,42.805,6.029,-0.019,0.012,-0.066,102.0,102.0,100.0,13.3,1505.2,324.3,-0.7,1.8,2471.386,13.29,0.022,302.3
2023-05-24T06:25:03,42.805,6.029,-0.022,0.002,-0.034,103.0,102.0,101.0,13.4,1505.2,332.1,-0.8,1.8,2471.403,13.29,0.022,275.2
2023-05-24T06:28:03,42.805,6.029,-0.029,0.002,-0.034,103.0,103.0,101.0,13.4,1505.2,326.8,-0.8,1.8,2471.403,13.29,0.029,273.9
2023-05-24T06:31:03,42.805,6.029,-0.01,0.013,-0.054,103.0,103.0,100.0,13.3,1505.2,342.9,-0.8,1.8,2471.356,13.29,0.016,322.4
2023-05-24T06:34:03,42.805,6.029,-0.022,0.001,-0.016,102.0,103.0,101.0,13.4,1505.2,326.6,-0.8,1.8,2471.35,13.29,0.022,272.6
2023-05-24T06:37:03,42.805,6.029,-0.023,0.001,-0.026,102.0,103.0,102.0,13.3,1505.2,334.8,-0.8,1.8,2471.367,13.29,0.023,272.5
2023-05-24T06:40:03,42.805,6.029,-0.031,0.012,-0.017,102.0,103.0,101.0,13.3,1505.2,332.1,-0.8,1.8,2471.385,13.29,0.033,291.2
2023-05-24T06:43:03,42.805,6.029,-0.027,0.033,-0.029,104.0,102.0,101.0,13.4,1505.2,336.1,-0.7,1.8,2471.377,13.29,0.042,320.7
2023-05-24T06:46:03,42.805,6.029,-0.04,0.012,-0.04,103.0,103.0,101.0,13.3,1505.2,329.0,-0.7,1.8,2471.362,13.29,0.041,286.7
2023-05-24T06:49:03,42.805,6.029,-0.02,0.016,-0.002,102.0,102.0,101.0,13.3,1505.2,333.4,-0.8,1.8,2471.347,13.29,0.025,308.7
2023-05-24T06:52:03,42.805,6.029,-0.032,0.009,0.009,103.0,101.0,103.0,13.4,1505.2,328.3,-0.8,1.8,2471.357,13.29,0.033,285.7
2023-05-24T06:55:03,42.805,6.029,-0.023,0.036,-0.013,101.0,101.0,101.0,13.3,1505.2,344.4,-0.8,1.8,2471.374,13.29,0.042,327.4
2023-05-24T06:58:03,42.805,6.029,-0.023,0.005,-0.034,101.0,101.0,101.0,13.4,1505.2,325.6,-0.8,1.8,2471.417,13.29,0.023,282.3
2023-05-24T07:04:03,42.805,6.029,-0.021,0.009,-0.021,103.0,102.0,100.0,13.4,1505.2,324.6,-0.8,1.9,2471.428,13.29,0.022,293.2
2023-05-24T07:07:03,42.805,6.029,-0.005,0.007,-0.019,102.0,102.0,101.0,13.4,1505.2,335.5,-0.7,1.8,2471.39,13.29,0.008,324.5
2023-05-24T07:10:03,42.805,6.029,-0.01,0.006,-0.03,103.0,102.0,100.0,13.3,1505.2,327.8,-0.8,1.8,2471.402,13.29,0.011,301.0
2023-05-24T07:13:03,42.805,6.029,-0.036,0.034,-0.042,103.0,101.0,101.0,13.4,1505.2,341.5,-0.8,1.8,2471.411,13.29,0.049,313.4
2023-05-24T07:16:03,42.805,6.029,0.005,0.014,-0.018,102.0,102.0,101.0,13.4,1505.2,337.4,-0.8,1.8,2471.336,13.29,0.014,19.6
2023-05-24T07:19:03,42.805,6.029,-0.028,-0.001,-0.044,103.0,102.0,102.0,13.4,1505.2,324.5,-0.8,1.8,2471.399,13.29,0.028,268.0
2023-05-24T07:22:03,42.805,6.029,-0.036,0.031,-0.005,102.0,102.0,101.0,13.4,1505.2,338.2,-0.8,1.8,2471.416,13.29,0.047,310.7
2023-05-24T07:25:03,42.805,6.029,0.006,0.013,-0.026,103.0,102.0,101.0,13.3,1505.2,332.3,-0.7,1.8,2471.386,13.29,0.014,24.8
2023-05-24T07:28:03,42.805,6.029,-0.04,0.017,-0.036,102.0,102.0,101.0,13.4,1505.2,326.5,-0.8,1.8,2471.413,13.29,0.043,293.0
2023-05-24T07:31:03,42.805,6.029,-0.004,0.016,-0.002,102.0,102.0,102.0,13.4,1505.2,329.0,-0.8,1.8,2471.41,13.29,0.016,346.0
2023-05-24T07:34:03,42.805,6.029,-0.015,0.029,0.0,102.0,102.0,101.0,13.4,1505.2,343.4,-0.8,1.8,2471.356,13.29,0.032,332.6
2023-05-24T07:37:03,42.805,6.029,-0.02,0.007,-0.021,104.0,102.0,101.0,13.4,1505.2,326.6,-0.7,1.8,2471.392,13.29,0.021,289.3
2023-05-24T07:40:03,42.805,6.029,-0.016,0.001,0.017,102.0,103.0,101.0,13.3,1505.2,324.3,-0.8,1.8,2471.389,13.29,0.016,273.6
2023-05-24T07:43:03,42.805,6.029,-0.04,0.015,-0.025,102.0,103.0,99.0,13.4,1505.2,330.3,-0.8,1.8,2471.384,13.29,0.042,290.6
2023-05-24T07:46:03,42.805,6.029,-0.021,0.044,-0.021,102.0,102.0,101.0,13.3,1505.2,342.7,-0.8,1.8,2471.44,13.29,0.048,334.5
2023-05-24T07:49:03,42.805,6.029,-0.03,0.02,-0.022,100.0,103.0,101.0,13.3,1505.2,332.1,-0.7,1.8,2471.391,13.29,0.036,303.7
2023-05-24T07:52:03,42.805,6.029,-0.016,0.016,-0.033,103.0,101.0,101.0,13.4,1505.2,333.9,-0.8,1.8,2471.351,13.29,0.022,315.0
2023-05-24T07:55:03,42.805,6.029,0.001,0.045,0.021,102.0,102.0,101.0,13.4,1505.2,348.2,-0.8,1.8,2471.376,13.29,0.045,1.3
2023-05-24T07:58:03,42.805,6.029,-0.012,0.016,-0.016,102.0,102.0,100.0,13.3,1505.2,318.5,-0.8,1.9,2471.37,13.29,0.02,323.1
2023-05-24T08:04:03,42.805,6.029,-0.012,0.007,0.01,102.0,102.0,101.0,13.4,1505.2,323.3,-0.8,1.8,2471.445,13.29,0.013,300.3
2023-05-24T08:07:03,42.805,6.029,-0.033,0.019,0.007,102.0,102.0,101.0,13.4,1505.2,332.3,-0.8,1.8,2471.449,13.29,0.038,299.9
2023-05-24T08:10:03,42.805,6.029,-0.034,0.03,-0.031,102.0,102.0,99.0,13.3,1505.2,339.5,-0.8,1.8,2471.424,13.29,0.045,311.4
2023-05-24T08:13:03,42.805,6.029,-0.03,0.004,-0.06,100.0,102.0,100.0,13.3,1505.2,331.3,-0.8,1.8,2471.41,13.29,0.03,277.6
2023-05-24T08:16:03,42.805,6.029,-0.018,0.005,-0.015,101.0,102.0,100.0,13.4,1505.2,335.6,-0.8,1.8,2471.389,13.29,0.018,285.5
2023-05-24T08:19:03,42.805,6.029,-0.001,0.013,0.015,100.0,102.0,100.0,13.3,1505.2,341.5,-0.8,1.8,2471.433,13.29,0.013,355.6
2023-05-24T08:22:03,42.805,6.029,-0.008,0.005,-0.031,102.0,102.0,101.0,13.3,1505.2,317.5,-0.8,1.8,2471.398,13.29,0.009,302.0
2023-05-24T08:25:03,42.805,6.029,-0.026,0.025,-0.003,101.0,101.0,101.0,13.4,1505.2,322.9,-0.7,1.8,2471.398,13.29,0.036,313.9
2023-05-24T08:28:03,42.805,6.029,-0.01,0.022,-0.021,101.0,100.0,100.0,13.4,1505.2,331.6,-0.8,1.8,2471.434,13.29,0.024,335.6
2023-05-24T08:31:03,42.805,6.029,-0.008,0.001,-0.008,102.0,103.0,98.0,13.4,1505.2,335.2,-0.8,1.8,2471.38,13.29,0.008,277.1
2023-05-24T08:34:03,42.805,6.029,-0.022,-0.004,-0.061,101.0,101.0,99.0,13.3,1505.2,331.4,-0.7,1.8,2471.393,13.29,0.022,259.7
2023-05-24T08:37:03,42.805,6.029,-0.013,0.026,0.004,100.0,100.0,100.0,13.3,1505.2,328.5,-0.7,1.8,2471.401,13.29,0.029,333.4
2023-05-24T08:40:03,42.805,6.029,-0.006,0.029,-0.034,101.0,102.0,100.0,13.3,1505.2,328.1,-0.8,1.8,2471.413,13.29,0.029,348.3
2023-05-24T08:43:03,42.805,6.029,-0.008,0.026,-0.021,102.0,101.0,100.0,13.4,1505.2,329.4,-0.8,1.8,2471.405,13.29,0.027,342.9
2023-05-24T08:46:03,42.805,6.029,-0.036,0.024,-0.015,102.0,101.0,100.0,13.4,1505.2,347.0,-0.7,1.8,2471.401,13.29,0.043,303.7
2023-05-24T08:49:03,42.805,6.029,-0.032,0.025,-0.056,103.0,102.0,100.0,13.4,1505.2,333.8,-0.8,1.8,2471.403,13.29,0.04,308.0
2023-05-24T08:52:03,42.805,6.029,-0.018,0.036,-0.024,101.0,102.0,100.0,13.3,1505.2,333.4,-0.8,1.8,2471.426,13.29,0.04,333.4
2023-05-24T08:55:03,42.805,6.029,-0.017,0.002,-0.029,101.0,101.0,100.0,13.4,1505.2,324.1,-0.8,1.8,2471.429,13.29,0.017,276.7
2023-05-24T08:58:03,42.805,6.029,-0.018,0.012,-0.04,101.0,101.0,101.0,13.3,1505.2,327.1,-0.7,1.8,2471.432,13.29,0.021,303.7
2023-05-24T09:04:03,42.805,6.029,-0.02,0.013,-0.046,101.0,101.0,99.0,13.3,1505.2,342.8,-0.8,1.8,2471.497,13.29,0.023,303.0
2023-05-24T09:07:03,42.805,6.029,-0.022,0.002,-0.008,101.0,101.0,100.0,13.3,1505.2,318.1,-0.8,1.8,2471.42,13.29,0.022,275.2
2023-05-24T09:10:03,42.805,6.029,-0.028,0.032,-0.007,102.0,103.0,100.0,13.4,1505.2,329.6,-0.8,1.8,2471.474,13.29,0.042,318.8
2023-05-24T09:13:03,42.805,6.029,-0.006,0.006,-0.036,102.0,100.0,100.0,13.4,1505.2,335.2,-0.8,1.8,2471.408,13.29,0.008,315.0
2023-05-24T09:16:03,42.805,6.029,-0.014,-0.003,-0.051,100.0,102.0,100.0,13.3,1505.2,328.2,-0.8,1.8,2471.409,13.29,0.014,257.9
2023-05-24T09:19:03,42.805,6.029,-0.002,-0.012,-0.014,100.0,102.0,100.0,13.4,1505.2,329.8,-0.7,1.8,2471.44,13.29,0.012,189.5
2023-05-24T09:22:03,42.805,6.029,-0.029,0.018,-0.032,102.0,99.0,100.0,13.4,1505.2,327.3,-0.8,1.8,2471.411,13.29,0.034,301.8
2023-05-24T09:25:03,42.805,6.029,-0.029,-0.001,-0.068,100.0,102.0,100.0,13.4,1505.2,338.8,-0.8,1.8,2471.415,13.29,0.029,268.0
2023-05-24T09:28:03,42.805,6.029,-0.044,0.021,-0.041,101.0,101.0,100.0,13.4,1505.2,330.1,-0.8,1.8,2471.419,13.29,0.048,295.5
2023-05-24T09:31:03,42.805,6.029,-0.017,-0.006,-0.048,100.0,102.0,99.0,13.4,1505.2,347.0,-0.8,1.8,2471.42,13.29,0.018,250.6
2023-05-24T09:34:03,42.805,6.029,-0.008,0.007,-0.025,101.0,100.0,100.0,13.3,1505.2,330.9,-0.8,1.9,2471.431,13.29,0.01,311.2
2023-05-24T09:37:03,42.805,6.029,-0.016,0.01,-0.016,101.0,101.0,100.0,13.3,1505.2,323.8,-0.8,1.8,2471.37,13.29,0.018,302.0
2023-05-24T09:40:03,42.805,6.029,-0.023,0.011,-0.016,102.0,101.0,100.0,13.3,1505.2,326.6,-0.8,1.8,2471.401,13.29,0.025,295.6
2023-05-24T09:43:03,42.805,6.029,-0.014,0.002,-0.035,101.0,101.0,100.0,13.3,1505.2,337.9,-0.8,1.8,2471.398,13.29,0.014,278.1
2023-05-24T09:46:03,42.805,6.029,-0.026,0.01,-0.026,99.0,101.0,100.0,13.4,1505.2,329.2,-0.7,1.8,2471.406,13.29,0.027,291.0
2023-05-24T09:49:03,42.805,6.029,-0.03,0.011,-0.054,102.0,101.0,100.0,13.3,1505.2,330.5,-0.8,1.9,2471.422,13.29,0.031,290.1
2023-05-24T09:52:03,42.805,6.029,-0.026,0.014,-0.017,101.0,101.0,99.0,13.4,1505.2,348.6,-0.8,1.8,2471.433,13.29,0.029,298.3